Anchorage, AK

2:56 AM AKDT on September 22, 2014 (GMT -0800)
Merrill | Change Station
CLOSE
Current Station
Airport
Location: Anchorage Merrill,
Elevation: 135 ft
Nearby Weather Stations

Elev 135 ft 61.22 °N, 149.85 °W | Updated 3 minutes ago

Mostly Cloudy
Mostly Cloudy
43 °F
Feels Like 40 °F
N
6
Wind Variable Wind from North

Today
High -- | Low -- °F
--% Chance of Precip.
Yesterday
High -- | Low -- °F
Precip. -- in
7:43 AM 7:58 PM
Waning Crescent, 3% visible
Pressure 29.43 in
Visibility 10.0 miles
Clouds Scattered Clouds 6000 ft
Mostly Cloudy 9000 ft
Windchill 40 °F
Dew Point 25 °F
Humidity 49%
Rainfall 0.00 in
Snow Depth 0 in , 1 in , 1 in
UV 0 out of 12
Pollen Not available.
Air Quality Not available.
Flu Activity Not available.
METAR PAMR 221053Z 36005KT 10SM SCT060 BKN090 06/M04 A2942 RMK AO2 SLP964 T00611039

More Conditions Fewer Conditions

Pressure 29.43 in
Visibility 10.0 miles
Clouds Scattered Clouds 6000 ft
Mostly Cloudy 9000 ft
Windchill 40 °F
Dew Point 25 °F
Humidity 49%
Rainfall 0.00 in
Snow Depth 0 in , 1 in , 1 in
UV 0 out of 12
Pollen Not available.
Air Quality Not available.
Flu Activity Not available.
METAR PAMR 221053Z 36005KT 10SM SCT060 BKN090 06/M04 A2942 RMK AO2 SLP964 T00611039

More Conditions Fewer Conditions

10-Day Weather Forecast

Almanac

Astronomy

Sep. 22, 2014 Rise Set
Actual Time 7:43 AM AKDT 7:58 PM AKDT
Civil Twilight 7:00 AM AKDT 8:41 PM AKDT
Nautical Twilight 6:08 AM AKDT 9:33 PM AKDT
Astronomical Twilight 5:10 AM AKDT 10:31 PM AKDT
Moon 6:07 AM AKDT 7:18 PM AKDT
Length of Visible Light 13h 41m
Length of Day
12h 14m
Tomorrow will be 5m 40s shorter.
Waning Crescent, 3% of the Moon is Illuminated
Today
Waning Crescent
Sep 24
New
Oct 1
First Quarter
Oct 8
Full
Oct 15
Last Quarter

Today's Extremes

State Highs State Lows

Community

WunderPhotos

Upload Photos

1,755,408 photos uploaded!

Nearby

Snow Depth

Station Depth Elevation
Atigun Pass 5 in 4800 ft
Moraine 0 in 2100 ft
Eagle Summit 1 in 3650 ft
Mcneil Canyon 1 in 1320 ft
Susitna Valley High 2 in 375 ft

Earthquake Activity

City Distance Mag. Time & Date
No recent earthquake activity has been reported nearby.
Minimum magnitude displayed is 2.5.

Coastal Water Temperatures

Place Temperature
No Stations Reporting

Nearby Weather Stations